{"data":{"norad_id":56689,"intl_designator":"2023-067B","name":"STARLINK-30129","alt_names":[],"object_type":"PAYLOAD","status":"ACTIVE","operator":null,"country":"US","launch_date":"2023-05-19","launch_site_code":"AFETR","launch_vehicle":null,"mission":null,"orbit_class":"UNKNOWN","rcs_meters":null,"size_class":null,"mass_kg":null,"dimensions":null,"purposes":["comms"],"wikipedia_slug":null,"has_3d_model":false,"image_url":null,"decayed_at":null,"tle_current":{"epoch":"2026-09-20T08:48:34.246656Z","epoch_age_seconds":126429,"freshness":"FRESH","line1":"1 56689U 23067B   26263.36706304 -.00001084  00000+0 -29870-4 0  9994","line2":"2 56689  43.0026 261.8021 0001476 265.2173  94.8510 15.27574230185350","mean_motion":15.2757423,"eccentricity":0.0001476,"inclination_deg":43.0026,"raan_deg":261.8021,"arg_perigee_deg":265.2173,"mean_anomaly_deg":94.851,"bstar":-2.987e-5,"rev_number":18535,"period_min":94.267104780892,"perigee_km":482.05365993185,"apogee_km":484.07908716772,"semimajor_km":6861.2033735498,"source":"CELESTRAK","updated_at":"2026-09-21T09:00:33.480932Z"}}}